[[{"header":{"parameterUnit":"m.s-1","parameterCategory":1,"la1":30.2991,"la2":30.254,"lo1":-89.0895,"lo2":-89.0444,"dy":0.0017,"dx":0.0017,"nx":28,"ny":28,"refTime":"2024-03-20T03:00:00:Z","depth":0,"parameterNumber":2,"parameterNumberName":"U-component_of_WINDS"},"data":[0,0,0,0,0,0,0,0,0,0,0,0,0,0,0,0,0,0,0,0,0,0,0,0,0,0,0,0,0,0,0,0,0,0,0,0,0,0,0,0,0,0,0,0,0,0,0,0,0,0,0,0,0,0,0,0,0,0,-1.2027,-1.2024,0,-1.1709,-1.1706,-1.1702,-1.1539,-1.1538,-1.1538,-1.1538,-1.1205,-1.1197,-1.1188,0,0,0,0,0,0,0,0,0,0,0,0,0,-1.2485,-1.2478,-1.2028,-1.2024,-1.202,-1.171,-1.1706,-1.1701,-1.1539,-1.1538,-1.1538,-1.1538,-1.1208,-1.1198,-1.1187,0,0,0,0,0,0,0,0,0,0,0,0,0,-1.2239,-1.2475,-1.2028,-1.1901,-1.1887,-1.1711,-1.1705,-1.17,-1.1539,-1.1538,-1.1538,-1.1538,-1.1211,-1.1199,-1.1186,-1.111,0,0,-1.1146,-1.114,0,0,0,0,0,0,0,0,-1.2253,-1.2222,-1.1924,-1.191,-1.1893,-1.1664,-1.1745,-1.1502,-1.1539,-1.1671,-1.1538,-1.1538,-1.1357,-1.1332,-1.1273,-1.1094,-1.108,-1.1145,-1.1137,-1.1131,-1.1127,0,0,0,0,0,0,0,-1.227,-1.2235,-1.1901,-1.192,-1.1901,-1.1857,-1.1822,-1.1698,-1.1519,-1.1659,-1.1647,-1.1612,-1.1349,-1.1286,-1.1264,-1.1075,-1.1145,-1.1133,-1.1125,-1.112,-1.0813,-1.0813,0,0,0,0,0,0,-1.2309,-1.225,-1.1911,-1.1892,-1.2077,-1.1849,-1.181,-1.1737,-1.152,-1.1487,-1.1612,-1.1605,-1.1308,-1.1279,-1.1252,-1.1146,-1.1131,-1.1119,-1.1111,-1.0814,-1.0813,-1.0813,0,0,0,0,0,0,-1.232,-1.228,-1.1924,-1.2067,-1.2019,-1.1842,-1.1762,-1.1731,-1.1668,-1.1484,-1.1451,-1.1581,-1.1307,-1.127,-1.1146,-1.1132,-1.1113,-1.1101,-1.0814,-1.0814,-1.0813,-1.0936,0,0,0,0,0,0,-1.2333,-1.2285,-1.2257,-1.2068,-1.2012,-1.1827,-1.1761,-1.1725,-1.1647,-1.1635,-1.1447,-1.1415,-1.1304,-1.1166,-1.1133,-1.1114,-1.1091,-1.0814,-1.0814,-1.0813,-1.0933,-1.094,-1.0946,0,0,0,0,0,-1.235,-1.2303,-1.2256,-1.2216,-1.1973,-1.1827,-1.1794,-1.167,-1.1647,-1.1615,-1.1496,-1.1421,-1.1139,-1.1155,-1.1116,-1.1093,-1.0815,-1.0814,-1.0813,-1.0929,-1.0939,-1.0946,0,0,0,0,0,0,-1.2493,-1.2276,-1.2222,-1.2113,-1.199,-1.18,-1.1756,-1.1684,-1.1563,-1.1556,-1.1404,-1.1363,-1.1252,-1.1159,-1.1181,-1.1006,-1.0969,-1.0961,-1.1071,-1.1078,-1.1085,-1.1109,-1.108,0,0,0,0,0,-1.2512,-1.2414,-1.2229,-1.215,-1.2091,-1.1935,-1.1866,-1.1781,-1.1646,-1.1593,-1.1465,-1.1335,-1.1217,-1.1142,-1.1023,-1.0918,-1.0873,-1.0882,-1.089,-1.0896,-1.089,-1.0825,-1.0826,-1.0811,-1.0811,-1.0811,0,0,-1.255,-1.2419,-1.2366,-1.2175,-1.207,-1.1969,-1.1892,-1.1789,-1.1711,-1.1576,-1.1452,-1.1353,-1.1198,-1.1083,-1.1025,-1.1002,-1.0885,-1.0895,-1.0902,-1.0892,-1.0825,-1.0826,-1.0828,-1.081,-1.081,-1.081,0,0,-1.2567,-1.246,-1.2381,-1.2277,-1.2119,-1.2015,-1.1997,-1.1816,-1.1747,-1.162,-1.1515,-1.1419,-1.122,-1.1112,-1.1032,-1.1006,-1.0931,-1.0971,-1.1008,-1.0946,-1.0947,-1.0947,-1.0936,-1.0934,-1.0966,-1.0967,-1.0967,0,-1.2633,-1.248,-1.235,-1.2252,-1.217,-1.2045,-1.1962,-1.1867,-1.1677,-1.1622,-1.1599,-1.1344,-1.1231,-1.1088,-1.1082,-1.1021,-1.0992,-1.0992,-1.0958,-1.0957,-1.0955,-1.0943,-1.0939,-1.0972,-1.0972,-1.0971,-1.0971,0,-1.2568,-1.2463,-1.2418,-1.2241,-1.2153,-1.2064,-1.1917,-1.1844,-1.1765,-1.1663,-1.1533,-1.1392,-1.1242,-1.1201,-1.1123,-1.1046,-1.1036,-1.0988,-1.0947,-1.0965,-1.095,-1.0945,-1.0981,-1.0979,-1.0977,-1.0976,0,0,-1.2668,-1.2418,-1.2404,-1.2321,-1.2136,-1.205,-1.1954,-1.1809,-1.1748,-1.162,-1.1533,-1.1366,-1.132,-1.1229,-1.1136,-1.1083,-1.1069,-1.1039,-1.1033,-1.1049,-1.0972,-1.101,-1.1007,-1.1018,-1.1017,-1.1016,-1.0985,0,-1.2658,-1.2483,-1.2361,-1.2231,-1.2131,-1.2009,-1.1924,-1.18,-1.1701,-1.1598,-1.1487,-1.1371,-1.1319,-1.1263,-1.1204,-1.1084,-1.1051,-1.1084,-1.0933,-1.0929,-1.0976,-1.0999,-1.1039,-1.1017,-1.0978,-1.0977,-1.0977,0,-1.2625,-1.2503,-1.2364,-1.2188,-1.2141,-1.2068,-1.1923,-1.1828,-1.1683,-1.1614,-1.1512,-1.1418,-1.1307,-1.1277,-1.112,-1.1145,-1.1076,-1.1007,-1.1003,-1.0984,-1.0954,-1.0979,-1.1006,-1.1003,-1.0967,-1.0968,-1.0968,0,-1.271,-1.2511,-1.2401,-1.2333,-1.2126,-1.2077,-1.1987,-1.1842,-1.1762,-1.1634,-1.158,-1.1441,-1.1365,-1.1258,-1.1127,-1.1118,-1.0983,-1.0943,-1.092,-1.0924,-1.0897,-1.0901,-1.0913,-1.0855,-1.0855,-1.0855,-1.0855,0,-1.2712,-1.2631,-1.2436,-1.2369,-1.2274,-1.2133,-1.2042,-1.1942,-1.1813,-1.1722,-1.1606,-1.1522,-1.1356,-1.125,-1.1147,-1.1031,-1.0998,-1.0937,-1.091,-1.0947,-1.0955,-1.0899,-1.0897,-1.0854,-1.0854,-1.0854,-1.0854,0,-1.2792,-1.2659,-1.2531,-1.2344,-1.2295,-1.2233,-1.2072,-1.2,-1.1894,-1.1779,-1.1744,-1.1577,-1.1446,-1.1306,-1.1127,-1.1057,-1.0947,-1.091,-1.0997,-1.0982,-1.0967,-1.097,-1.0943,-1.0932,-1.0884,-1.0884,-1.0885,0,-1.2802,-1.2737,-1.2544,-1.2476,-1.239,-1.2281,-1.2198,-1.2056,-1.1974,-1.1803,-1.1751,-1.1612,-1.1494,-1.129,-1.1151,-1.1013,-1.0971,-1.0971,-1.0949,-1.0987,-1.0969,-1.0974,-1.0966,-1.0978,-1.0979,-1.098,-1.0981,0,-1.2834,-1.2771,-1.2658,-1.2521,-1.2426,-1.231,-1.219,-1.214,-1.1973,-1.1886,-1.1753,-1.1661,-1.1479,-1.1342,-1.1186,-1.109,-1.1007,-1.0989,-1.0976,-1.1013,-1.1066,-1.1035,-1.1015,-1.099,-1.0989,-1.0989,-1.0988,-1.0988,-1.2878,-1.2814,-1.2668,-1.2544,-1.2439,-1.2329,-1.2252,-1.2136,-1.2023,-1.1866,-1.1787,-1.1654,-1.1506,-1.1289,-1.1195,-1.1086,-1.1061,-1.1043,-1.1038,-1.1036,-1.1045,-1.1084,-1.1057,-1.1057,-1.1056,-1.1056,-1.1056,0,-1.2903,-1.2802,-1.2691,-1.2527,-1.2429,-1.2361,-1.2223,-1.2145,-1.203,-1.1901,-1.1787,-1.1631,-1.1497,-1.1347,-1.1202,-1.1143,-1.1101,-1.111,-1.1112,-1.1091,-1.1076,-1.1101,-1.1146,-1.1146,-1.1146,-1.1146,-1.1146,-1.1146,-1.2905,-1.2792,-1.2711,-1.2543,-1.2442,-1.2312,-1.2239,-1.2135,-1.2031,-1.1864,-1.1752,-1.1656,-1.1516,-1.136,-1.1233,-1.1191,-1.1143,-1.1163,-1.1111,-1.11,-1.1092,-1.1085,-1.1108,-1.1154,-1.1154,-1.1134,-1.1134,-1.1134]},{"header":{"parameterUnit":"m.s-1","parameterCategory":1,"la1":30.2991,"la2":30.254,"lo1":-89.0895,"lo2":-89.0444,"dy":0.0017,"dx":0.0017,"nx":28,"ny":28,"refTime":"2024-03-20T03:00:00:Z","depth":0,"parameterNumber":3,"parameterNumberName":"V-component_of_WINDS"},"data":[0,0,0,0,0,0,0,0,0,0,0,0,0,0,0,0,0,0,0,0,0,0,0,0,0,0,0,0,0,0,0,0,0,0,0,0,0,0,0,0,0,0,0,0,0,0,0,0,0,0,0,0,0,0,0,0,0,0,-2.4133,-2.4133,0,-2.4176,-2.4176,-2.4177,-2.4023,-2.4018,-2.4013,-2.4009,-2.4061,-2.4066,-2.4072,0,0,0,0,0,0,0,0,0,0,0,0,0,-2.3923,-2.3928,-2.4133,-2.4133,-2.4134,-2.4176,-2.4176,-2.4177,-2.4024,-2.4018,-2.4012,-2.4007,-2.4059,-2.4066,-2.4073,0,0,0,0,0,0,0,0,0,0,0,0,0,-2.3996,-2.393,-2.4133,-2.4062,-2.4056,-2.4176,-2.4176,-2.4177,-2.4025,-2.4018,-2.4011,-2.4004,-2.4057,-2.4065,-2.4073,-2.4265,0,0,-2.41,-2.4103,0,0,0,0,0,0,0,0,-2.3992,-2.4003,-2.4072,-2.4067,-2.4061,-2.4087,-2.4121,-2.4207,-2.4026,-2.4037,-2.4009,-2.4001,-2.4076,-2.4082,-2.4106,-2.4268,-2.427,-2.41,-2.4105,-2.4109,-2.4112,0,0,0,0,0,0,0,-2.3987,-2.4001,-2.415,-2.4073,-2.4066,-2.403,-2.4033,-2.4137,-2.4095,-2.4036,-2.4024,-2.4031,-2.4071,-2.4098,-2.4106,-2.4271,-2.41,-2.4108,-2.4113,-2.4116,-2.4592,-2.4599,0,0,0,0,0,0,-2.399,-2.3998,-2.4149,-2.4151,-2.4008,-2.404,-2.4042,-2.4086,-2.4093,-2.4088,-2.4037,-2.4024,-2.4087,-2.4096,-2.4107,-2.4333,-2.4109,-2.4117,-2.4122,-2.4585,-2.4594,-2.4602,0,0,0,0,0,0,-2.3986,-2.4005,-2.4147,-2.4071,-2.4087,-2.4051,-2.41,-2.409,-2.4116,-2.4094,-2.4087,-2.4072,-2.4082,-2.4095,-2.4226,-2.4332,-2.4121,-2.4129,-2.4576,-2.4587,-2.4598,-2.4786,0,0,0,0,0,0,-2.3981,-2.4005,-2.4076,-2.4074,-2.4091,-2.4265,-2.4107,-2.4096,-2.4131,-2.4114,-2.4125,-2.412,-2.4077,-2.4215,-2.4235,-2.434,-2.4135,-2.4566,-2.4581,-2.4594,-2.477,-2.4802,-2.4829,0,0,0,0,0,-2.3974,-2.4129,-2.408,-2.41,-2.4179,-2.4271,-2.4281,-2.4226,-2.414,-2.4212,-2.4198,-2.412,-2.4317,-2.4229,-2.4251,-2.4361,-2.4559,-2.4577,-2.4593,-2.4757,-2.4796,-2.4829,0,0,0,0,0,0,-2.4147,-2.4127,-2.4074,-2.4232,-2.4254,-2.4245,-2.4335,-2.4269,-2.4319,-2.4301,-2.4233,-2.4237,-2.4381,-2.4383,-2.4286,-2.4546,-2.4423,-2.4446,-2.454,-2.4577,-2.4606,-2.4604,-2.4142,0,0,0,0,0,-2.4203,-2.4277,-2.4256,-2.4399,-2.4412,-2.4372,-2.441,-2.4365,-2.4386,-2.4396,-2.4391,-2.4417,-2.4484,-2.453,-2.4591,-2.4768,-2.4769,-2.4854,-2.4884,-2.4908,-2.4929,-2.5024,-2.5062,-2.4657,-2.4657,-2.4657,0,0,-2.4322,-2.4319,-2.4371,-2.4433,-2.4445,-2.4526,-2.4381,-2.4472,-2.4531,-2.441,-2.4534,-2.4531,-2.4555,-2.4711,-2.4779,-2.4717,-2.5041,-2.493,-2.495,-2.4957,-2.5046,-2.5084,-2.5118,-2.4669,-2.4667,-2.4665,0,0,-2.4578,-2.4583,-2.4702,-2.4716,-2.4734,-2.4706,-2.4735,-2.4735,-2.4728,-2.485,-2.476,-2.4831,-2.4948,-2.4969,-2.4995,-2.5257,-2.5188,-2.5278,-2.5435,-2.5528,-2.556,-2.5588,-2.5684,-2.5719,-2.5299,-2.5299,-2.5299,0,-2.4723,-2.4838,-2.4772,-2.4869,-2.4899,-2.4789,-2.4911,-2.4928,-2.4967,-2.4992,-2.4921,-2.5065,-2.5073,-2.5232,-2.5296,-2.532,-2.5352,-2.5279,-2.5561,-2.5588,-2.5613,-2.5704,-2.5739,-2.531,-2.5309,-2.5308,-2.5307,0,-2.5017,-2.5098,-2.5192,-2.523,-2.527,-2.5379,-2.5331,-2.5381,-2.5332,-2.5312,-2.5438,-2.5443,-2.5503,-2.5537,-2.5491,-2.569,-2.5651,-2.5572,-2.5447,-2.5664,-2.5748,-2.5782,-2.5326,-2.5322,-2.5319,-2.5316,0,0,-2.5388,-2.5384,-2.542,-2.5436,-2.5447,-2.551,-2.5613,-2.5669,-2.5714,-2.5744,-2.5831,-2.5931,-2.5857,-2.5887,-2.5842,-2.5923,-2.6132,-2.5833,-2.5833,-2.5891,-2.6353,-2.6416,-2.6457,-2.6084,-2.6091,-2.6096,-2.6352,0,-2.5641,-2.5816,-2.5759,-2.5938,-2.6013,-2.5908,-2.5998,-2.6016,-2.6,-2.6062,-2.6044,-2.6117,-2.6012,-2.603,-2.6105,-2.6091,-2.6225,-2.6071,-2.6168,-2.6172,-2.6168,-2.65,-2.6567,-2.6809,-2.6384,-2.639,-2.6394,0,-2.5961,-2.6001,-2.6187,-2.6185,-2.6214,-2.6296,-2.6343,-2.6403,-2.6421,-2.6403,-2.6435,-2.6372,-2.6476,-2.6348,-2.649,-2.6387,-2.6423,-2.6422,-2.6429,-2.644,-2.6299,-2.6522,-2.6884,-2.6922,-2.6444,-2.644,-2.6437,0,-2.6216,-2.6316,-2.644,-2.6456,-2.6456,-2.6517,-2.652,-2.653,-2.6568,-2.6608,-2.6632,-2.6685,-2.6716,-2.6759,-2.6713,-2.6624,-2.6863,-2.6731,-2.6854,-2.6855,-2.6912,-2.691,-2.7289,-2.693,-2.693,-2.6929,-2.6928,0,-2.6507,-2.6626,-2.6554,-2.6632,-2.6762,-2.6694,-2.6825,-2.6816,-2.6826,-2.6901,-2.6813,-2.6886,-2.6819,-2.6886,-2.685,-2.6975,-2.6988,-2.6979,-2.6969,-2.6989,-2.6991,-2.7014,-2.6998,-2.6938,-2.6936,-2.6934,-2.6933,0,-2.6816,-2.6772,-2.6901,-2.6889,-2.6889,-2.6986,-2.6976,-2.7048,-2.7022,-2.7118,-2.7137,-2.7099,-2.7173,-2.713,-2.7207,-2.7182,-2.7345,-2.731,-2.7339,-2.7331,-2.7457,-2.7447,-2.7867,-2.792,-2.7524,-2.7528,-2.7531,0,-2.7007,-2.7095,-2.7092,-2.7134,-2.7142,-2.7212,-2.7249,-2.7185,-2.7227,-2.7253,-2.7322,-2.7387,-2.7437,-2.756,-2.7541,-2.7598,-2.7567,-2.7709,-2.7575,-2.7593,-2.7572,-2.7569,-2.7579,-2.7738,-2.7743,-2.7747,-2.775,0,-2.7351,-2.7324,-2.7379,-2.7427,-2.7472,-2.7507,-2.7535,-2.7575,-2.7511,-2.7563,-2.7636,-2.7674,-2.775,-2.7817,-2.7866,-2.787,-2.7802,-2.7791,-2.7823,-2.7847,-2.7861,-2.7858,-2.7417,-2.7783,-2.778,-2.7777,-2.7776,-2.7774,-2.7609,-2.7683,-2.7691,-2.7756,-2.7769,-2.7796,-2.7863,-2.7845,-2.7904,-2.796,-2.7918,-2.8005,-2.802,-2.8077,-2.8091,-2.8159,-2.8102,-2.8148,-2.816,-2.8173,-2.8192,-2.7846,-2.8167,-2.8166,-2.8165,-2.8164,-2.8164,0,-2.7951,-2.7951,-2.801,-2.805,-2.8101,-2.8026,-2.8052,-2.8101,-2.8178,-2.8196,-2.8245,-2.833,-2.8393,-2.8378,-2.8435,-2.8493,-2.8463,-2.8511,-2.8509,-2.8511,-2.8238,-2.8206,-2.8535,-2.8535,-2.8535,-2.8535,-2.8534,-2.8534,-2.8136,-2.8257,-2.8231,-2.8359,-2.8357,-2.844,-2.8462,-2.8487,-2.8501,-2.8599,-2.865,-2.8638,-2.8643,-2.87,-2.8756,-2.8749,-2.8777,-2.8837,-2.882,-2.8567,-2.853,-2.8496,-2.8465,-2.8843,-2.8843,-2.9088,-2.909,-2.9092]}]]